WZZ5965 LHBP-EDDS

Flight info

Callsign WZZ5965
Flight time N/A
Altitude 34000
Route GILEP DCT ZOLKU DCT ABETI DCT BARUG DCT LIMRA DCT TITIG L173 MAH/N0405F240 L173 DODIL T127 TEKSI TEKSI5A
Aircraft A21N/M-SDE2E3FGHIRWXY/LB1

Departure

Time N/A
Airport Budapest Liszt Ferenc International Airport (LHBP)

Arrival

Time 2026-05-01 08:06
Airport Stuttgart Airport (EDDS)
Time Latitude Longitude Altitude Speed Heading
2026-05-01 07:23 47.94849 14.54730 34484 ft 485 kts 284°
2026-05-01 07:24 47.96008 14.39795 34443 ft 485 kts 284°
2026-05-01 07:24 47.96774 14.29784 34459 ft 486 kts 283°
2026-05-01 07:25 47.97533 14.19764 34461 ft 485 kts 283°
2026-05-01 07:25 47.98283 14.09769 34430 ft 483 kts 283°
2026-05-01 07:26 47.99029 13.99812 34453 ft 482 kts 283°
2026-05-01 07:26 47.99785 13.89873 34458 ft 482 kts 283°
2026-05-01 07:27 48.00510 13.79986 34453 ft 482 kts 283°
2026-05-01 07:27 48.01220 13.70010 34422 ft 482 kts 283°
2026-05-01 07:28 48.01919 13.60110 34445 ft 478 kts 282°
2026-05-01 07:28 48.02605 13.50204 34449 ft 479 kts 282°
2026-05-01 07:29 48.03284 13.40364 34447 ft 479 kts 282°
2026-05-01 07:29 48.03957 13.30452 34433 ft 479 kts 282°
2026-05-01 07:30 48.04617 13.20560 34419 ft 478 kts 282°
2026-05-01 07:30 48.05271 13.10682 34441 ft 478 kts 282°
2026-05-01 07:31 48.05918 13.00779 34437 ft 478 kts 282°
2026-05-01 07:32 48.07494 12.76102 34430 ft 478 kts 281°
2026-05-01 07:33 48.08410 12.61262 34438 ft 478 kts 281°
2026-05-01 07:33 48.09316 12.46407 34431 ft 478 kts 281°
2026-05-01 07:34 48.11439 12.32129 34432 ft 465 kts 296°
2026-05-01 07:35 48.13615 12.23011 34422 ft 465 kts 296°
2026-05-01 07:35 48.15702 12.13837 34415 ft 469 kts 291°
2026-05-01 07:36 48.16637 12.04038 34420 ft 478 kts 281°
2026-05-01 07:36 48.17239 11.94222 34411 ft 476 kts 281°
2026-05-01 07:37 48.18386 11.79492 34409 ft 470 kts 289°
2026-05-01 07:37 48.19956 11.70006 34407 ft 469 kts 290°
2026-05-01 07:38 48.21538 11.60517 34378 ft 469 kts 289°
2026-05-01 07:39 48.23877 11.46305 34401 ft 468 kts 289°
2026-05-01 07:39 48.26605 11.32341 34395 ft 458 kts 302°
2026-05-01 07:40 48.28260 11.28381 34400 ft 449 kts 313°
2026-05-01 07:40 48.30357 11.24869 34405 ft 444 kts 319°
2026-05-01 07:40 48.34622 11.18344 34393 ft 441 kts 319°
2026-05-01 07:41 48.38425 11.10940 34407 ft 459 kts 301°
2026-05-01 07:41 48.40966 11.02273 33776 ft 449 kts 298°
2026-05-01 07:42 48.42228 10.97969 33494 ft 450 kts 299°
2026-05-01 07:42 48.43509 10.93656 33220 ft 451 kts 299°
2026-05-01 07:42 48.44797 10.89351 32967 ft 452 kts 299°
2026-05-01 07:42 48.46087 10.85031 32707 ft 452 kts 299°
2026-05-01 07:43 48.47378 10.80701 32422 ft 453 kts 298°
2026-05-01 07:43 48.48666 10.76370 32172 ft 453 kts 298°
2026-05-01 07:43 48.51230 10.67723 31678 ft 455 kts 298°
2026-05-01 07:44 48.53806 10.59003 31159 ft 454 kts 298°
2026-05-01 07:44 48.56404 10.50210 28333 ft 469 kts 297°
2026-05-01 07:45 48.57741 10.45665 26865 ft 476 kts 297°
2026-05-01 07:45 48.59088 10.41071 25465 ft 480 kts 296°
2026-05-01 07:45 48.60443 10.36431 24157 ft 484 kts 296°
2026-05-01 07:45 48.61794 10.31800 23055 ft 480 kts 296°
2026-05-01 07:46 48.63132 10.27210 22053 ft 473 kts 296°
2026-05-01 07:46 48.64449 10.22690 21030 ft 466 kts 296°
2026-05-01 07:46 48.67010 10.13857 18836 ft 450 kts 295°
2026-05-01 07:47 48.67818 10.10996 18247 ft 441 kts 294°
2026-05-01 07:47 48.68665 10.06615 17584 ft 430 kts 281°
2026-05-01 07:47 48.68813 10.00586 17150 ft 438 kts 267°
2026-05-01 07:47 48.68594 9.96006 16770 ft 434 kts 266°
2026-05-01 07:48 48.68210 9.88457 15507 ft 426 kts 266°
2026-05-01 07:48 48.68002 9.84050 14755 ft 423 kts 266°
2026-05-01 07:48 48.67797 9.79593 14042 ft 423 kts 266°
2026-05-01 07:49 48.67592 9.75187 13285 ft 417 kts 266°
2026-05-01 07:49 48.67189 9.66697 12328 ft 393 kts 266°
2026-05-01 07:49 48.67002 9.62626 12021 ft 379 kts 266°
2026-05-01 07:50 48.66833 9.58734 11785 ft 364 kts 266°
2026-05-01 07:50 48.66503 9.51405 11384 ft 334 kts 266°
2026-05-01 07:50 48.66349 9.47972 11204 ft 320 kts 266°
2026-05-01 07:51 48.66203 9.44719 10956 ft 310 kts 265°
2026-05-01 07:51 48.66055 9.41477 10479 ft 309 kts 265°
2026-05-01 07:51 48.65906 9.38230 10000 ft 308 kts 265°
2026-05-01 07:52 48.65259 9.31951 9315 ft 298 kts 254°
2026-05-01 07:52 48.64730 9.28942 8988 ft 296 kts 253°
2026-05-01 07:52 48.64192 9.25942 8658 ft 294 kts 253°
2026-05-01 07:53 48.63122 9.19999 7998 ft 291 kts 253°
2026-05-01 07:53 48.62592 9.17054 7651 ft 289 kts 253°
2026-05-01 07:53 48.62062 9.14116 7163 ft 291 kts 253°
2026-05-01 07:53 48.61532 9.11139 6605 ft 295 kts 253°
2026-05-01 07:54 48.60484 9.05060 5398 ft 302 kts 253°
2026-05-01 07:55 48.59348 8.98126 4175 ft 302 kts 253°
2026-05-01 07:55 48.58429 8.92280 3992 ft 271 kts 253°
2026-05-01 07:56 48.57288 8.84645 3978 ft 237 kts 253°
2026-05-01 07:56 48.56573 8.79815 4006 ft 236 kts 253°
2026-05-01 07:57 48.56411 8.77357 3971 ft 233 kts 276°
2026-05-01 07:57 48.57801 8.73268 4027 ft 224 kts 324°
2026-05-01 07:58 48.60693 8.72431 4030 ft 210 kts 18°
2026-05-01 07:58 48.62292 8.75346 3983 ft 187 kts 97°
2026-05-01 07:59 48.61782 8.79154 4014 ft 184 kts 99°
2026-05-01 07:59 48.61821 8.83045 4023 ft 188 kts 87°
2026-05-01 08:00 48.63017 8.90796 3993 ft 189 kts 78°
2026-05-01 08:01 48.64125 8.96628 4018 ft 193 kts 78°
2026-05-01 08:01 48.64497 8.98582 4031 ft 193 kts 78°
2026-05-01 08:01 48.64868 9.00532 3974 ft 191 kts 78°
2026-05-01 08:02 48.65544 9.04090 3564 ft 161 kts 79°
2026-05-01 08:02 48.65840 9.05662 3426 ft 145 kts 78°
2026-05-01 08:03 48.66333 9.08313 3173 ft 129 kts 79°
2026-05-01 08:03 48.66564 9.09615 2976 ft 128 kts 75°
2026-05-01 08:03 48.67079 9.12193 2505 ft 127 kts 76°
2026-05-01 08:04 48.67576 9.14767 2173 ft 127 kts 75°
2026-05-01 08:04 48.68056 9.17341 1849 ft 125 kts 76°
2026-05-01 08:05 48.68548 9.19867 1387 ft 126 kts 76°
2026-05-01 08:05 48.68785 9.21123 1266 ft 116 kts 75°
2026-05-01 08:05 48.68955 9.22020 1250 ft 60 kts 73°
2026-05-01 08:06 48.69120 9.22865 1225 ft 16 kts 64°
2026-05-01 08:06 48.69291 9.23140 1223 ft 20 kts 33°
2026-05-01 08:07 48.69364 9.22820 1231 ft 26 kts 255°
2026-05-01 08:07 48.69257 9.22240 1254 ft 31 kts 253°
2026-05-01 08:08 48.69195 9.21917 1256 ft 30 kts 254°
2026-05-01 08:08 48.69103 9.21425 1269 ft 27 kts 253°
2026-05-01 08:09 48.68992 9.20839 1280 ft 31 kts 253°
2026-05-01 08:09 48.68930 9.20520 1288 ft 29 kts 254°
2026-05-01 08:09 48.68884 9.20271 1294 ft 25 kts 254°
2026-05-01 08:10 48.68829 9.19908 1303 ft 11 kts 318°
2026-05-01 08:10 48.68955 9.19849 1312 ft 5 kts 343°
2026-05-01 08:11 48.68975 9.19840 1314 ft 0 kts 344°